Home   Weather   Svolvær   Past weeks
Flag for Norway

Past Weather in Svolvær, Norway — Yesterday and Last 2 Weeks

Now
39 °F

Sprinkles. Partly sunny.


Feels Like: 35 °F
Forecast: 39 / 35 °F
Wind: 6 mph from Northwest

Location: Svolvaer / Helle

Current Time: Oct 18, 2019 at 11:24:09 am

Latest Report: Oct 18, 2019 at 10:20 am


Visibility: N/A

Pressure: 29.71 "Hg

Humidity: 87%

Dew Point: 36 °F

Location of SvolværLocation

Past Weather in Svolvær — Graph

°F

Svolvær Temperature Yesterday

Maximum temperature yesterday: 43 °F (at 12:20 pm)
Minimum temperature yesterday: 39 °F (at 5:20 am)
Average temperature yesterday: 40 °F

High & Low Weather Summary for the Past Weeks

 TemperatureHumidityPressure
High46 °F (Oct 7, 10:50 am)100% (Oct 15, 1:50 pm)30.27 "Hg (Oct 15, 1:50 pm)
Low34 °F (Oct 11, 7:20 am)46% (Oct 3, 4:20 pm)29.33 "Hg (Oct 12, 9:50 am)
Average40 °F70%29.85 "Hg
* Reported Oct 3 9:20 am — Oct 18 9:50 am, Svolvær. Weather by CustomWeather, © 2019

Note: Actual official high and low records may vary slightly from our data, if they occured in-between our weather recording intervals... More about our weather records

Advertising

Svolvær Weather History for the Previous 24 Hours

Scroll right to see more
 ConditionsComfort  
Time TempWeatherWind HumidityBarometerVisibility
9:50 am
Fri, Oct 18
39 °FSprinkles. Partly sunny.5 mph87%29.71 "HgN/A
9:20 am39 °FSprinkles. Partly sunny.5 mph81%29.71 "HgN/A
8:50 am39 °FPartly sunny.6 mph81%29.71 "HgN/A
8:20 am39 °FPartly sunny.6 mph81%29.71 "HgN/A
6:50 am39 °FPassing clouds.6 mph81%29.71 "HgN/A
6:20 am39 °FPartly cloudy.2 mph81%29.71 "HgN/A
5:50 am39 °FPassing clouds.5 mph75%29.71 "HgN/A
5:20 am39 °FPassing clouds.5 mph75%29.71 "HgN/A
10:50 pm
Thu, Oct 17
39 °FClear.6 mph70%29.74 "Hg10 mi
9:50 pm39 °FClear.9 mph70%29.74 "Hg10 mi
9:20 pm39 °FClear.6 mph70%29.77 "Hg10 mi
8:50 pm39 °FClear.9 mph70%29.77 "Hg10 mi
7:50 pm41 °FClear.12 mph66%29.77 "Hg10 mi
7:20 pm41 °FClear.10 mph66%29.77 "Hg10 mi
6:20 pm41 °FClear.13 mph70%29.80 "Hg10 mi
4:20 pm41 °FSunny.14 mph66%29.80 "Hg10 mi
3:50 pm41 °FSunny.12 mph66%29.80 "Hg10 mi
3:20 pm43 °FSunny.12 mph57%29.83 "Hg10 mi
2:50 pm43 °FSunny.13 mph61%29.83 "Hg10 mi
2:20 pm43 °FPassing clouds.13 mph61%29.83 "HgN/A
1:50 pm41 °FSunny.13 mph66%29.86 "Hg10 mi
12:50 pm41 °FSunny.14 mph66%29.86 "Hg10 mi
12:20 pm43 °FPassing clouds.8 mph57%29.86 "HgN/A
11:50 am41 °FPassing clouds.12 mph61%29.89 "HgN/A
Weather by CustomWeather, © 2019

See weather overview